Weather History for Marion Regional, IL

Change the Weather History Date:

Tuesday, February 28, 2012

  Actual Average Record
Temperature  
Mean Temperature 50 °F -  
Max Temperature 66 °F 47 °F 76 °F (1981)
Min Temperature 33 °F 26 °F 5 °F (1993)
Degree Days  
Heating Degree Days 16    
Moisture  
Dew Point 36 °F    
Average Humidity 60    
Maximum Humidity 82    
Minimum Humidity 37    
Precipitation  
Precipitation 0.00 in - - ()
Sea Level Pressure  
Sea Level Pressure 30.18 in    
Wind  
Wind Speed 7 mph (East)    
Max Wind Speed 22 mph    
Max Gust Speed 30 mph    
Visibility 13 miles    
Events Rain , Thunderstorm    
Averages and records for this station are not official NWS values.
T = Trace of Precipitation, MM = Missing Value Source: NWS Daily Summary

Daily Weather History Graph

Daily Weather History Graph

Search for Another Location

Airport:

Trip Planner

Search our weather history database for the weather conditions in past years. The results will help you decide how hot, cold, wet, or windy it might be!

Date:

Astronomy

Feb. 28, 2012 Rise Set
Actual Time 6:29 AM CST 5:48 PM CST
Civil Twilight 6:03 AM CST 6:14 PM CST
Nautical Twilight 5:32 AM CST 6:45 PM CST
Astronomical Twilight 5:02 AM CST 7:15 PM CST
Moon 9:45 AM CST (2/28) No Moon Set
Length of Visible Light 12h 11m
Length of Day
11h 18m
Waxing Crescent, 38% of the Moon is Illuminated
Feb 28
Waxing Crescent
Feb 29
First Quarter
Mar 8
Full
Mar 14
Last Quarter
Mar 22
New

Hourly Weather History & Observations

Time (CST) Temp. Windchill Dew Point Humidity Pressure Visibility Wind Dir Wind Speed Gust Speed Precip Events Conditions
12:15 AM 37.4 °F 32.1 °F 26.6 °F 65% 30.40 in 10.0 mi NE 6.9 mph - N/A   Clear
12:35 AM 39.2 °F 34.2 °F 26.6 °F 61% 30.40 in 10.0 mi NNE 6.9 mph - N/A   Clear
12:55 AM 39.2 °F 35.9 °F 24.8 °F 56% 30.40 in 10.0 mi NE 4.6 mph - N/A   Clear
1:15 AM 37.4 °F 33.8 °F 24.8 °F 60% 30.40 in 10.0 mi NNE 4.6 mph - N/A   Clear
1:35 AM 37.4 °F 32.8 °F 24.8 °F 60% 30.40 in 10.0 mi NNE 5.8 mph - N/A   Clear
1:55 AM 33.8 °F 29.6 °F 26.6 °F 75% 30.40 in 10.0 mi North 4.6 mph - N/A   Clear
2:15 AM 35.6 °F 32.8 °F 26.6 °F 70% 30.40 in 10.0 mi North 3.5 mph - N/A   Clear
2:35 AM 33.8 °F 30.8 °F 26.6 °F 75% 30.40 in 10.0 mi North 3.5 mph - N/A   Clear
2:55 AM 35.6 °F 30.7 °F 26.6 °F 70% 30.40 in 10.0 mi North 5.8 mph - N/A   Clear
3:15 AM 33.8 °F 28.6 °F 26.6 °F 75% 30.39 in 10.0 mi North 5.8 mph - N/A   Clear
3:35 AM 35.6 °F 30.7 °F 26.6 °F 70% 30.40 in 10.0 mi NNE 5.8 mph - N/A   Clear
3:55 AM 33.8 °F 29.6 °F 26.6 °F 75% 30.40 in 10.0 mi NNE 4.6 mph - N/A   Clear
4:15 AM 33.8 °F 29.6 °F 26.6 °F 75% 30.40 in 10.0 mi NNE 4.6 mph - N/A   Scattered Clouds
4:55 AM 35.6 °F 31.7 °F 26.6 °F 70% 30.40 in 10.0 mi NNE 4.6 mph - N/A   Clear
5:35 AM 35.6 °F 29.9 °F 26.6 °F 70% 30.38 in 10.0 mi NE 6.9 mph - N/A   Clear
6:53 AM 37.4 °F 32.8 °F 26.6 °F 65% 30.36 in 20.0 mi East 5.8 mph - N/A   Scattered Clouds
7:56 AM 42.8 °F 36.6 °F 26.6 °F 53% 30.34 in 20.0 mi ESE 11.5 mph - N/A   Mostly Cloudy
8:53 AM 44.6 °F 39.7 °F 26.6 °F 49% 30.31 in 20.0 mi ESE 9.2 mph - N/A   Overcast
9:58 AM 48.2 °F - 28.4 °F 46% 30.29 in 20.0 mi SE 8.1 mph - N/A   Overcast
10:55 AM 51.8 °F - 30.2 °F 44% 30.28 in 20.0 mi East 5.8 mph - N/A   Overcast
11:53 AM 55.4 °F - 32.0 °F 41% 30.25 in 20.0 mi SE 6.9 mph - N/A   Overcast
12:55 PM 57.2 °F - 33.8 °F 41% 30.20 in 20.0 mi SE 5.8 mph - N/A   Overcast
1:55 PM 62.6 °F - 35.6 °F 37% 30.15 in 20.0 mi SE 9.2 mph - N/A   Mostly Cloudy
2:55 PM 64.4 °F - 37.4 °F 37% 30.10 in 20.0 mi SSE 11.5 mph - N/A   Scattered Clouds
3:55 PM 66.2 °F - 42.8 °F 43% 30.07 in 20.0 mi South 11.5 mph - N/A   Mostly Cloudy
4:55 PM 66.2 °F - 42.8 °F 43% 30.05 in 20.0 mi SSE 11.5 mph - N/A   Overcast
5:55 PM 66.2 °F - 42.8 °F 43% 30.03 in 20.0 mi SSE 11.5 mph - N/A   Overcast
6:35 PM 62.6 °F - 42.8 °F 48% 30.01 in 10.0 mi ESE 5.8 mph - N/A   Overcast
6:55 PM 64.4 °F - 44.6 °F 49% 29.98 in 10.0 mi ESE 8.1 mph - N/A   Overcast
7:15 PM 62.6 °F - 44.6 °F 52% 29.97 in 10.0 mi ESE 8.1 mph - N/A   Scattered Clouds
7:35 PM 62.6 °F - 44.6 °F 52% 29.97 in 10.0 mi SE 8.1 mph - N/A   Scattered Clouds
7:55 PM 62.6 °F - 46.4 °F 55% 29.94 in 10.0 mi ESE 9.2 mph - N/A   Mostly Cloudy
8:15 PM 64.4 °F - 48.2 °F 56% 29.94 in 10.0 mi SE 9.2 mph - N/A Thunderstorm Mostly Cloudy
8:35 PM 64.4 °F - 50.0 °F 59% 29.92 in 10.0 mi SE 9.2 mph - N/A   Overcast
9:15 PM 64.4 °F - 53.6 °F 68% 29.91 in 10.0 mi SE 18.4 mph 26.5 mph N/A   Light Drizzle
9:35 PM 64.4 °F - 53.6 °F 68% 29.89 in 10.0 mi SE 15.0 mph 21.9 mph N/A Thunderstorm Overcast
10:15 PM 62.6 °F - 55.4 °F 77% 29.86 in 10.0 mi SSE 21.9 mph 29.9 mph N/A Rain , Thunderstorm Light Thunderstorms and Rain
10:55 PM 62.6 °F - 57.2 °F 82% 29.85 in 10.0 mi SSE 15.0 mph 19.6 mph N/A   Overcast
11:15 PM 62.6 °F - 57.2 °F 82% 29.86 in 10.0 mi South 13.8 mph - N/A   Overcast
11:35 PM 62.6 °F - 57.2 °F 82% 29.82 in 10.0 mi SSE 19.6 mph 23.0 mph N/A   Overcast